Aérodrome :
LOGIN :

S'inscrire | Disclaimer

   EN    FR    IT 

 










Légende :    VFR   VFR Marginal   IFR   IFR Intensif   IFR Très Intensif
Visi : 
Plafond : 
>= 8 km
>= 3000ft
5 à 8 km
1000 à 3000 ft
1500m à 5 km
500 à 1000 ft
800 à 1500m
200 à 500 ft
< 800m
< 200 ft
Symboles :   Orages  Brouillard  Fortes neiges  Fortes précipitations  Vent > 20 kt
SIGMETs :   Divers  Orages  Givrage  Turbulence  Onde Orograph.  Cendres Volcan.






- Altitude de l'aérodrome : 194 ft
- Code IATA : ANE


LFJR - Angers Marcé

DERNIER METAR :
  • 152100Z AUTO 17007KT 9999 BKN044/// BKN068/// BKN096/// ///TCU 09/08 Q1006

METARs EXPIRÉS :
  • 152030Z AUTO 17005KT 9999 -RA ///TCU 09/07 Q1006
  • 152000Z AUTO 17005KT CAVOK 09/07 Q1006
  • 151930Z AUTO 17004KT CAVOK 09/07 Q1006
  • 151900Z AUTO 17004KT CAVOK 09/07 Q1006
  • 151830Z AUTO 17004KT CAVOK 09/07 Q1006

Prévision TAF périmée.



MET'MAP, la Météo Aéronautique d'un coup d'oeil ! - Copyright ORBIFLY Décembre 2007 - Disclaimer

ORBIFLY MET'MAP TEAM :

Programmation & Développement : Alexandra Zaïnal
Sur une idée originale de : Baudouin d'Aumeries
Assistance à la programmation : Marc-Olivier Méhu
Soutien technique & logistique : Manuel Goepfert

Contact : metmap@orbifly.com




SOURCES & CREDITS :

   NOAA